Flag for U.S.A. Weather past 2 weeks in Harrisburg, Pennsylvania, U.S.A.

Now
54 °F

Scattered clouds.


Feels Like: 52 °F
Forecast: 51 / 61 °F
Wind: 8 mph from West

Location: Capital City Airport

Current Time: Apr 21, 2015 at 9:42:49 AM

Latest Report: Apr 21, 2015 at 8:56 AM


Visibility: 10 mi

Pressure: 29.72 "Hg

Humidity: 59%

Dew point: 40 °F

Location of HarrisburgLocation

Historic Weather in Harrisburg — Graph

°F

Harrisburg temperature yesterday

Maximum temperature yesterday: 70 °F (at 3:56 PM)
Minimum temperature yesterday: 49 °F (at 12:56 AM)
Average temperature yesterday: 58 °F

Past Weeks' High & Low Weather Summary

 TemperatureHumidityPressure
High81 °F (Apr 18, 3:56 PM)97% (Apr 10, 7:03 AM)30.45 "Hg (Apr 10, 7:03 AM)
Low33 °F (Apr 12, 6:56 AM)13% (Apr 15, 4:56 PM)29.49 "Hg (Apr 20, 7:56 PM)
Average56 °F61%30.10 "Hg
* Reported Apr 6 7:56 AM — Apr 21 7:56 AM, Harrisburg, Weather by CustomWeather, © 2015

Note: Actual official high and low records may vary slightly from our data, if they occured in-between our weather recording intervals... More about our weather records

Advertising

Harrisburg weather history for previous 24 hours

 ConditionsComfort  
Time TempWeatherWind HumidityBarometerVisibility
7:56 AM
Tue, Apr 21
54 °FScattered clouds.8 mph59%29.72 "Hg10 mi
6:56 AM53 °FOvercast.7 mph64%29.70 "Hg10 mi
5:56 AM53 °FLight rain. Overcast.9 mph64%29.69 "Hg10 mi
4:56 AM56 °FLight rain. Mostly cloudy.13 mph72%29.65 "Hg10 mi
3:56 AM56 °FLight rain. Overcast.12 mph81%29.61 "Hg10 mi
2:56 AM57 °FFog.5 mph93%29.58 "Hg6 mi
2:04 AM57 °FLight rain. Fog.No wind96%29.58 "Hg4 mi
1:56 AM57 °FLight rain. Mostly cloudy.No wind96%29.59 "Hg7 mi
12:56 AM57 °FLight rain. Fog.6 mph96%29.58 "Hg6 mi
11:56 PM
Mon, Apr 20
57 °FHeavy rain. Fog.3 mph93%29.57 "Hg4 mi
10:56 PM58 °FThundershowers. Mostly cloudy.10 mph90%29.55 "Hg10 mi
9:56 PM64 °FThundershowers. Partly cloudy.7 mph73%29.56 "Hg10 mi
8:56 PM64 °FPartly cloudy.5 mph81%29.49 "Hg10 mi
7:56 PM63 °FScattered clouds.7 mph84%29.49 "Hg7 mi
6:56 PM64 °FPartly sunny.8 mph84%29.52 "Hg8 mi
5:56 PM64 °FScattered clouds.13 mph81%29.54 "Hg8 mi
4:56 PM68 °FBroken clouds.7 mph73%29.57 "Hg10 mi
3:56 PM70 °FPassing clouds.9 mph68%29.56 "Hg10 mi
2:56 PM68 °FSunny.12 mph70%29.57 "Hg10 mi
1:56 PM66 °FPassing clouds.8 mph75%29.61 "Hg10 mi
12:56 PM63 °FOvercast.8 mph81%29.63 "Hg10 mi
11:56 AM59 °FLow clouds.6 mph90%29.66 "Hg10 mi
10:56 AM58 °FFog.6 mph90%29.67 "Hg6 mi
10:03 AM55 °FFog.5 mph93%29.69 "Hg4 mi
9:56 AM55 °FFog.5 mph93%29.69 "Hg2 mi
Weather by CustomWeather, © 2015

See weather overviewHow to use our weather pages